Location: Mahannah Oil Field
(37.4664°N, 96.6003°W)
Time: 01:33:58
(UTC+00:00)

Tiros 1 despin weight - Pass Details

Date: 02 February 2021
Orbit: 593 x 642 km, 48.2° (Epoch: 25 February)

Event Time Altitude Azimuth Distance (km) Brightness Sun altitude
Rises 19:03:06 0° 281° (WNW) 2,918 ? 35.7°
Reaches altitude 10° 19:05:50 10° 296° (WNW) 2,003 ? 35.6°
Maximum altitude 19:09:32 23° 350° (N) 1,324 ? 35.5°
Drops below altitude 10° 19:13:11 10° 43° (NE) 1,980 ? 35.4°
Sets 19:15:53 0° 58° (ENE) 2,876 ? 35.3°
